Tracking 28792 objects as of 25-Apr-2024
HD Live streaming from Space Station
objects crossing your sky now

FLOCK 4S 25

Track FLOCK 4S 25 now!
10-day predictions
FLOCK 4S 25 is classified as:


NORAD ID: 47542
Int'l Code: 2021-006EC
Perigee: 426.7 km
Apogee: 433.9 km
Inclination: 97.3 °
Period: 93.0 minutes
Semi major axis: 6801 km
RCS: Unknown
Launch date: January 24, 2021
Source: United States (US)
Launch site: AIR FORCE EASTERN TEST RANGE (AFETR)
Your satellite tracking list
Your tracking list is empty




NASA's NSSDC Master Catalog

Two Line Element Set (TLE):
1 47542U 21006EC  24115.68146672  .00100057  00000-0  19071-2 0  9997
2 47542  97.3253 179.4296 0005300  44.5938 315.5738 15.47801967179795
Source of the keplerian elements: AFSPC